Location: Corte Bragagnani
(45.3000°N, 11.1000°E)
Time: 05:48:20
(UTC+00:00)

ATLAS 2AS CENTAUR R/B - Pass Details

Date: 09 April 2020
Orbit: 933 x 1279 km, 63.7° (Epoch: 25 May)

Event Time Altitude Azimuth Distance (km) Brightness Sun altitude
Rises 19:57:58 0° 316° (NW) 4,138 7.3 -20.6°
Reaches altitude 10° 20:01:09 10° 307° (NW) 3,122 6.3 -21.0°
Maximum altitude 20:07:25 31° 250° (WSW) 1,881 4.2 -21.9°
Enters shadow 20:13:02 11° 192° (SSW) 2,823 4.6 -22.7°
